Back to catalog

YAM-14

AliveCommunicationsSSO
NORAD 69008·PAYLOAD·🇺🇸 United States

Launched May 3, 2026 from Vandenberg Space Force Base

Loading…

Next Passes (next 24 hours)

TLE

FreshSource: Space-Track

Epoch: Sep 14, 2026, 15:36 UTC

1 69008U 26100AE  26257.65015558  .00001141  00000-0  12280-3 0  9992
2 69008  97.7755 153.5313 0001734  66.7703 293.3697 14.90404310 20018

Track YAM-14 in real time with AllMySat

Download on the App Store